Regional Weather Roundup
Issued by NWS

Home | Current Version | Previous Version | Text Only | Print | Product List | Glossary On
Versions: 1 2 3 4 5 6 7 8 9 10 11 12 13 14 15 16 17 18 19 20 21 22 23 24 25 26 27 28 29 30 31 32 33 34 35 36 37 38 39 40 41 42 43 44 45 46 47 48 49 50
000
ASPQ40 PGUM 271112
RWRPQ
WEATHER ROUNDUP FOR THE MARIANAS AND MICRONESIA
NATIONAL WEATHER SERVICE TIYAN GU
900 PM CHST WED AUG 27 2014

GUZ001>004-271200-
MARIANA ISLANDS-

CITY           SKY/WX    TMP DP  RH WIND       PRES   REMARKS
GUAM AIRPORT   PTCLDY    82  75  78 E7        29.89R
ANDERSEN AFB   PTCLDY    81  75  83 E14       29.89R
ROTA AIRPORT   NOT AVBL
TINIAN AP      NOT AVBL
SAIPAN AP      PTCLDY    82  75  78 E9        29.88R

$$

PMZ161-271200-
REPUBLIC OF PALAU-

CITY           SKY/WX    TMP DP  RH WIND       PRES   REMARKS
KOROR AP       MOCLDY    79  79 100 CALM      29.84R
KOROR WSO      CLOUDY    81  75  83 SW5       29.83R

$$

PMZ171>174-271200-
FEDERATED STATES OF MICRONESIA-

CITY           SKY/WX    TMP DP  RH WIND       PRES   REMARKS
YAP AIRPORT    PTCLDY    82  77  83 VRB3      29.82R HX  91
CHUUK AP       MOCLDY    82  79  89 VRB6      29.82R HX  93
POHNPEI AP     NOT AVBL
POHNPEI WSO    MOCLDY    79  77  94 E3        29.84S
KOSRAE AP      NOT AVBL

$$

PMZ181-271200-
REPUBLIC OF THE MARSHALL ISLANDS-

CITY           SKY/WX    TMP DP  RH WIND       PRES   REMARKS
KWAJALEIN AP   CLEAR     81  75  83 E3        29.83F
MAJURO AP      NOT AVBL
MAJURO WSO     MOCLDY    82  75  78 E5        29.83S

$$



USA.gov is the U.S. government's official web portal to all federal, state and local government web resources and services.